Location: Bandys
(35.4750°N, 81.0830°W)
Time: 21:34:49
(UTC-05:00)

Daily predictions for brighter satellites

Satellite Brightness Start Highest point End
(mag) Time Altitude Azimuth Time Altitude Azimuth Time Altitude Azimuth
Meteor 1-25 Rocket 4.3 18:27:29 10° S 18:32:58 63° E 18:38:33 10° NNE
CENTAUR R/B 3.3 18:26:37 10° NNW 18:34:39 89° WSW 18:43:04 10° SSE
Cosmos 44 3.2 18:30:41 10° NNW 18:34:58 49° ENE 18:39:07 10° SE
Cosmos 1346 Rocket 3.2 18:33:25 10° NNW 18:37:19 67° W 18:41:10 10° S
Cosmos 1745 Rocket 4.1 18:32:31 10° S 18:38:51 86° E 18:45:11 10° N
Cosmos 2151 Rocket 3.9 18:37:05 10° SSE 18:41:22 45° E 18:45:40 10° NNE
Cosmos 1812 2.7 18:43:29 10° N 18:47:18 59° E 18:51:06 10° SSE
NOAA 12 4.2 18:42:13 10° SSE 18:47:23 55° ENE 18:52:35 10° N
Okean 1 Rocket 4.4 18:45:11 10° SE 18:48:19 19° E 18:51:27 10° NE
Cosmos 1386 Rocket 4.4 18:43:03 10° S 18:49:10 78° E 18:55:13 10° N
METEOR-M 4.2 18:45:29 10° SSE 18:50:42 58° ENE 18:55:57 10° N
Cosmos 1954 Rocket 4.3 18:46:59 10° S 18:51:49 42° ESE 18:56:43 10° NNE
GEOS 3 Rocket 3.7 18:50:35 10° NE 18:55:48 64° ESE 19:01:02 10° SSW
Cosmos 2360 Rocket 3.1 18:55:15 10° N 19:00:02 27° ENE 19:04:48 10° ESE
Cosmos 1980 Rocket 4.0 18:55:38 10° NW 19:00:46 36° WSW 19:05:54 10° SSW
SL-8 R/B 4.4 18:59:20 10° WNW 19:04:02 55° SW 19:08:44 10° SE
Helios 1B rocket 3.8 19:07:49 17° E 19:08:30 18° E 19:11:20 10° SE
OAO 3 Copernicus 4.3 19:04:34 10° W 19:09:40 86° S 19:13:24 18° E
Cosmos 1602 4.0 19:06:24 10° SSE 19:10:05 45° E 19:13:49 10° NNE
Cosmos 1633 2.7 19:07:01 10° SSE 19:10:34 49° E 19:14:09 10° NNE
FREGAT/IRIS 2.6 19:12:45 10° SSE 19:15:48 88° E 19:18:55 10° N
ALOS 2.3 19:13:51 10° SSE 19:18:23 55° ENE 19:22:57 10° N
Cosmos 1833 4.1 19:13:55 10° SSW 19:19:37 78° ESE 19:25:18 10° NNE
Cosmos 1536 Rocket 3.6 19:22:20 10° N 19:26:50 85° W 19:31:17 10° S
Cosmos 1818 4.3 19:21:50 10° SW 19:27:08 54° WNW 19:32:30 10° NNE
ASTRO E2 4.4 19:25:33 10° WSW 19:28:57 26° SSW 19:31:26 15° SSE
SJ-6B 3.3 19:27:59 10° S 19:32:00 62° W 19:35:57 10° NNW
Cosmos 1741 Rocket 4.2 19:27:10 10° S 19:32:08 45° ESE 19:37:05 10° NNE
FengYun 1-2 T 4.1 19:28:34 10° SSE 19:34:01 76° ENE 19:39:31 10° N
SL-16 R/B 2.9 19:28:31 10° NNW 19:34:03 57° WSW 19:39:35 10° S
Cosmos 1023 Rocket 4.3 19:30:39 10° SSW 19:35:43 87° ESE 19:40:53 10° NNE
DNEPR-1 R/B 4.0 19:33:20 10° NW 19:37:28 59° WSW 19:41:45 10° SSE
Resurs 01 Rocket 1.5 19:33:29 10° SSE 19:37:51 68° ENE 19:42:14 10° N
Gbstr 26 Del rocket 2.6 19:38:56 10° SW 19:42:47 79° NW 19:43:57 42° NE
Cosmos 1340 2.8 19:39:06 10° NNW 19:42:53 73° W 19:46:38 10° S
Cosmos 1238 Rocket 2.1 19:41:15 10° N 19:44:14 77° W 19:45:29 31° S
Meteor 1-19 Rocket 4.1 19:38:32 10° N 19:44:14 78° E 19:50:00 10° SSE
DELTA 2 R/B (1) 3.6 19:40:59 10° WNW 19:46:36 72° NNE 19:48:38 40° E
Meteor 1-5 Rocket 4.5 19:41:54 10° SSE 19:47:37 50° E 19:53:19 10° NNE
Cosmos 1570 Rocket 4.4 19:43:33 10° N 19:48:29 40° ENE 19:48:44 40° ENE
Cosmos 2181 Rocket 4.1 19:43:36 10° N 19:49:52 82° W 19:56:12 10° S
Hubble Space Telescope 3.2 19:49:27 10° S 19:49:46 10° S 19:49:46 10° S
Cosmos 2322 Rocket 3.7 19:46:44 10° NW 19:51:51 37° WSW 19:56:57 10° S
Cosmos 1300 Rocket 4.4 19:50:42 10° SSW 19:54:57 50° W 19:59:17 10° N
Tiangong 2 1.8 19:52:11 10° WNW 19:54:34 49° WNW 19:54:34 49° WNW
Cosmos 1536 2.8 19:53:19 10° S 19:57:18 80° W 20:01:18 10° N
Resurs 1-3 3.6 19:56:11 10° S 20:00:33 78° WSW 20:04:58 10° NNW
CZ-2D R/B 3.4 20:03:05 63° N 20:03:05 63° N 20:06:19 10° NNW
FENGYUN 3A 4.3 19:58:30 10° S 20:03:47 55° W 20:09:06 10° NNW
Cosmos 2322 3.6 19:59:04 10° NNW 20:04:49 86° ENE 20:07:31 33° SSE
Cosmos 2074 Rocket 3.9 19:58:59 10° S 20:05:13 82° E 20:11:31 10° N
Cosmos 1140 Rocket 4.4 20:00:29 10° SW 20:05:25 48° WNW 20:10:24 10° N
Cosmos 2184 Rocket 3.9 19:59:36 10° S 20:05:55 80° E 20:12:13 10° N
Meteor 1-23 Rocket 4.1 20:04:49 10° N 20:10:38 76° E 20:12:58 38° SSE
H-2A R/B 3.6 20:10:08 27° SSW 20:11:48 46° W 20:15:24 10° NNW
Cosmos 2208 Rocket 4.0 20:07:25 10° N 20:12:31 62° NE 20:12:31 62° NE
Spot 2 Rocket 4.2 20:08:59 10° S 20:13:53 53° W 20:18:51 10° NNW
COSMOS 2428 3.0 20:12:17 10° NNW 20:16:58 50° NNE 20:16:58 50° NNE
Meteor 2-4 Rocket 3.8 20:12:48 10° NNW 20:18:20 73° W 20:22:38 16° S
Cosmos 2237 4.0 20:12:42 10° NNW 20:18:26 73° ENE 20:18:32 73° ENE
Helios 1A 3.9 20:21:30 42° NNW 20:21:30 42° NNW 20:24:22 10° NNW
Cosmos 2237 Rocket 4.3 20:22:58 10° N 20:23:53 13° NNE 20:23:53 13° NNE
GPS 2-04 Rocket1 4.5 20:28:27 10° WSW 20:30:46 30° SW 20:30:46 30° SW
USA 229 DEB 4.1 20:26:04 10° NNW 20:32:15 49° NE 20:32:15 49° NE
USA 229 4.1 20:26:10 10° NNW 20:32:19 48° NNE 20:32:19 48° NNE
Cosmos 2285 Rocket 4.2 20:29:22 10° NNW 20:34:37 56° NNE 20:34:37 56° NNE
Cosmos 2219 3.8 20:32:24 10° SW 20:38:00 55° WNW 20:41:01 27° N
Helios 1B rocket 4.3 20:44:11 30° W 20:44:11 30° W 20:47:26 10° SW
Cosmos 2360 Rocket 3.5 20:38:55 10° NW 20:44:02 36° WSW 20:47:03 21° SSW
Cosmos 2219 Rocket 3.8 20:41:58 10° NNW 20:44:08 23° N 20:44:08 23° N
ATLAS 2A CENTAUR R/B 4.2 21:05:04 10° WSW 21:07:24 24° SSW 21:07:24 24° SSW
Cosmos 2333 Rocket 4.3 21:07:28 10° NNW 21:09:02 19° NNW 21:09:02 19° NNW
